Regional Weather Roundup
Issued by NWS

Home | Current Version | Previous Version | Graphics & Text | Print | Product List | Glossary On
Versions: 1 2 3 4 5 6 7 8 9 10 11 12 13 14 15 16 17 18 19 20 21 22 23 24 25 26 27 28 29 30 31 32 33 34 35 36 37 38 39 40 41 42 43 44 45 46 47 48 49 50
000
ASUS43 KOAX 290010
RWRNE

WEATHER ROUNDUP FOR NEBRASKA
NATIONAL WEATHER SERVICE OMAHA NE
700 PM CDT SAT MAR 28 2015

NOTES: SATELLITE DATA IS BEING USED TO AUGMENT CLOUD COVER ABOVE
       12000 FEET.
       "FAIR" INDICATES FEW OR NO CLOUDS BELOW 12,000 FEET WITH NO
       SIGNIFICANT WEATHER AND/OR OBSTRUCTIONS TO VISIBILITY.

  * THESE STATIONS DO NOT REPORT WEATHER SUCH AS RAIN...SNOW OR FOG.

NEZ001>004-019>022-054>056-290100-
NEBRASKA PANHANDLE

CITY           SKY/WX    TMP DP  RH WIND       PRES   REMARKS
SCOTTSBLUFF    SUNNY     77  27  15 W12       29.75F
6HR MIN TEMP:  74; 6HR MAX TEMP:  82;

ALLIANCE       SUNNY     79  32  18 W18G24    29.74F
6HR MIN TEMP:  73; 6HR MAX TEMP:  81;

CHADRON        SUNNY     81  28  14 W18G24    29.65F
6HR MIN TEMP:  73; 6HR MAX TEMP:  83;

KIMBALL        SUNNY     75  20  12 W21       29.83F
SIDNEY         MOSUNNY   78  24  13 NW18G26   29.81F
6HR MIN TEMP:  74; 6HR MAX TEMP:  82;

$$

NEZ057>060-069>072-079>082-290100-
SOUTHWEST NEBRASKA

CITY           SKY/WX    TMP DP  RH WIND       PRES   REMARKS
NORTH PLATTE   SUNNY     74  35  24 SE16      29.78F
6HR MIN TEMP:  68; 6HR MAX TEMP:  77;

IMPERIAL         N/A     81  21  11 W15G26    29.79F
6HR MIN TEMP:  70; 6HR MAX TEMP:  82;

LEXINGTON      SUNNY     68  35  29 SE22      29.85F
MCCOOK         SUNNY     78  34  20 SE20G29   29.81F
6HR MIN TEMP:  68; 6HR MAX TEMP:  81;

OGALLALA       MOSUNNY   82  29  14 W17       29.75F
$$

NEZ005>010-023>029-035>040-094-290100-
NORTH CENTRAL NEBRASKA

CITY           SKY/WX    TMP DP  RH WIND       PRES   REMARKS
VALENTINE      SUNNY     77  33  20 S21G31    29.67F
6HR MIN TEMP:  66; 6HR MAX TEMP:  79;

AINSWORTH      SUNNY     69  34  27 S23G33    29.73F
BROKEN BOW     SUNNY     68  36  30 S17G25    29.83F
6HR MIN TEMP:  59; 6HR MAX TEMP:  71;

O`NEILL        CLEAR     60  34  38 S21G28    29.84F
ORD            CLEAR     63  33  32 SE16G28   29.86F
6HR MIN TEMP:  53; 6HR MAX TEMP:  64;

THEDFORD       SUNNY     76  36  23 S22       29.76F
$$

NEZ041-046>049-061>064-073>077-083>087-290100-
SOUTH CENTRAL NEBRASKA

CITY           SKY/WX    TMP DP  RH WIND       PRES   REMARKS
GRAND ISLAND   CLEAR     60  34  37 SE16G24   29.93F
6HR MIN TEMP:  51; 6HR MAX TEMP:  62;

AURORA         CLEAR     58  34  39 SE17      29.94F
HASTINGS       CLEAR     62  34  35 S14G24    29.93S
6HR MIN TEMP:  54; 6HR MAX TEMP:  64;

HEBRON         CLEAR     60  30  33 SE14      29.97F
HOLDREGE       SUNNY     65  33  30 S20G25    29.89F
KEARNEY *      CLEAR     64  34  32 S17G24    29.90F
YORK           CLEAR     55  34  44 S17       29.96F
$$

NEZ011>018-030>034-042>045-290100-
NORTHEAST NEBRASKA

CITY           SKY/WX    TMP DP  RH WIND       PRES   REMARKS
NORFOLK        CLEAR     54  33  45 S18G28    29.94F
6HR MIN TEMP:  46; 6HR MAX TEMP:  56;

ALBION         CLEAR     56  32  40 S17       29.92F
BLAIR          CLEAR     53  31  43 S15G23    30.01F
COLUMBUS *     CLEAR     54  34  47 S17       29.98F
FREMONT        CLEAR     53  31  43 SE16G23   30.01S
TEKAMAH        CLEAR     54  29  38 SE30G44   30.01F
6HR MIN TEMP:  49; 6HR MAX TEMP:  57;

WAYNE          CLEAR     53  32  45 S23       29.96F
$$

NEZ050>053-065>068-078-088>093-290100-
SOUTHEAST NEBRASKA

CITY           SKY/WX    TMP DP  RH WIND       PRES   REMARKS
LINCOLN        CLEAR     54  34  46 SE18      30.02F
6HR MIN TEMP:  49; 6HR MAX TEMP:  57;

OMAHA EPPLEY   CLEAR     53  30  41 S22       30.03F
6HR MIN TEMP:  48; 6HR MAX TEMP:  54;

BEATRICE       CLEAR     55  34  44 SE14      30.01F
FALLS CITY     CLEAR     52  31  44 SE14      30.07S
6HR MIN TEMP:  49; 6HR MAX TEMP:  55;

NEBRASKA CITY  CLEAR     51  29  43 S14G23    30.05F
PLATTSMOUTH    CLEAR     51  29  42 SE16      30.04F
$$

NEZ044-045-051>053-067-290100-
OMAHA AREA

CITY           SKY/WX    TMP DP  RH WIND       PRES   REMARKS
OMAHA EPPLEY   CLEAR     53  30  41 S22       30.03F
6HR MIN TEMP:  48; 6HR MAX TEMP:  54;

BLAIR          CLEAR     53  31  43 S15G23    30.01F
FREMONT        CLEAR     53  31  43 SE16G23   30.01S
MILLARD        CLEAR     53  32  45 SE14      30.03S
OFFUTT AFB     CLEAR     52  31  44 S14       30.03F
PLATTSMOUTH    CLEAR     51  29  42 SE16      30.04F
WAHOO          FAIR      53  31  43 SE18      30.00F
$$


USA.gov is the U.S. government's official web portal to all federal, state and local government web resources and services.